Regional Weather Roundup
Issued by NWS San Angelo, TX

Home | Current Version | Previous Version | Text Only | Print | Product List | Glossary On
Versions: 1 2 3 4 5 6 7 8 9 10 11 12 13 14 15 16 17 18 19 20 21 22 23 24 25 26 27 28 29 30 31 32 33 34 35 36 37 38 39 40 41 42 43 44 45 46 47 48 49 50
000
ASUS44 KSJT 241310
RWRSJT
WEST CENTRAL TEXAS REGIONAL WEATHER ROUNDUP
NATIONAL WEATHER SERVICE SAN ANGELO TX
700 AM CST TUE JAN 24 2017

NOTE: "FAIR" INDICATES FEW OR NO CLOUDS BELOW 12,000 FEET WITH NO
SIGNIFICANT WEATHER AND/OR OBSTRUCTIONS TO VISIBILITY.

TXZ049-054-064>066-071>073-076>078-098-099-113-114-127-128-139-140-
154-155-168>170-241400
...LOCATIONS ACROSS WEST CENTRAL TEXAS...

CITY           SKY/WX    TMP DP  RH WIND       PRES   REMARKS
SAN ANGELO     CLEAR     59  32  36 S14       29.67R
ABILENE        CLEAR     55  32  41 S17       29.62S
DYESS AFB      CLEAR     59  35  39 SW25G35   29.59R
JUNCTION       CLOUDY    57  35  43 SW3       29.73R
SWEETWATER     CLEAR     55  33  43 S12       29.65R
BROWNWOOD      NOT AVBL
COLEMAN        NOT AVBL
SONORA         CLOUDY    59  32  36 S8        29.76R
OZONA          FAIR      41  32  70 MISG      29.75S
BRADY          NOT AVBL
$$

TEXAS PANHANDLE/OKLAHOMA PANHANDLE

CITY           SKY/WX    TMP DP  RH WIND       PRES   REMARKS
AMARILLO       CLEAR     46  29  51 SW18      29.56R WCI  39
BORGER         CLEAR     43  30  60 SW10      29.53R WCI  37
CANADIAN       CLEAR     48  32  53 SW9       29.49S
DALHART        CLOUDY    42  33  70 W10       29.53S WCI  36
DUMAS          SUNNY     37  28  70 W12       29.54R WCI  30
GUYMON         NOT AVBL
HEREFORD       SUNNY     45  32  59 W15       29.58R WCI  38
PAMPA          SUNNY     51  31  45 SW24      29.52S
PERRYTON       CLEAR     46  33  62 W15       29.49R WCI  39
$$

SOUTHERN PANHANDLE/SOUTH PLAINS/ROLLING PLAINS

CITY           SKY/WX    TMP DP  RH WIND       PRES   REMARKS
LUBBOCK        CLOUDY    41  32  70 SW10      29.61R WCI  35
SNYDER         CLEAR     44  33  64 S10       29.63R WCI  39
CHILDRESS      CLEAR     47  33  58 S7        29.56R
SEMINOLE       SUNNY     45  32  61 SW9       29.65R WCI  40
$$

PERMIAN BASIN

CITY           SKY/WX    TMP DP  RH WIND       PRES   REMARKS
MIDLAND        CLEAR     50  33  52 SW7       29.65R
ODESSA         CLEAR     52  31  44 SW9       29.66R
WINK           CLEAR     36  32  85 VRB5      29.65R WCI  32
$$

FAR WEST/SOUTHWEST MOUNTAINS/TRANS PECOS

CITY           SKY/WX    TMP DP  RH WIND       PRES   REMARKS
ALPINE         SUNNY     64  22  19 SW21G30   29.81R
DRYDEN           N/A     45  34  65 N9        29.71R
EL PASO        PTCLDY    50  34  54 W22G30    29.75R
FORT STOCKTON  CLEAR     53  29  39 SW10      29.68R
GUADALUPE PASS CLEAR     47  27  45 W37G44    29.72R WCI  37
MARFA          CLOUDY    31  27  85 NW5       29.81R WCI  26
PECOS          SUNNY     35  32  86 S6        29.67R WCI  30
$$

DALLAS/FORT WORTH METROPLEX

CITY           SKY/WX    TMP DP  RH WIND       PRES   REMARKS
DFW AIRPORT    MOCLDY    49  39  68 SE8       29.66S
FTW MEACHAM    CLOUDY    49  36  61 SE6       29.67R
DAL-EXECUTIVE  PTCLDY    52  39  61 S7        29.69R
GRAND PRAIRIE  NOT AVBL
ADDISON        CLEAR     52  37  58 SE10G18   29.70R
MESQUITE       SUNNY     48  39  71 SE9       29.71R
LANCASTER      CLOUDY    45  38  75 SE5       29.72R
$$

NORTH CENTRAL TEXAS

CITY           SKY/WX    TMP DP  RH WIND       PRES   REMARKS
SHRMAN/DENISON SUNNY     51  39  64 S13       29.67S
GAINESVILLE    CLEAR     45  38  76 SE7       29.67S
BRIDGEPORT     MOSUNNY   40  38  92 E3        29.65S
DENTON         CLOUDY    47  37  68 SE6       29.66S
WAXAHACHIE     CLOUDY    50  40  69 S6        29.71R
GRANBURY       MOSUNNY   58  35  42 S12       29.67S
$$

WESTERN NORTH TEXAS

CITY           SKY/WX    TMP DP  RH WIND       PRES   REMARKS
WICHITA FALLS  MOCLDY    45  35  68 S7        29.59S
VERNON         PTSUNNY   48  35  60 S9        29.58R
BRECKENRIDGE   SUNNY     58  31  36 S16       29.62R
COMANCHE       CLEAR     57  33  39 S7        29.67S
$$

CENTRAL AND SOUTH CENTRAL TEXAS

CITY           SKY/WX    TMP DP  RH WIND       PRES   REMARKS
AUSTIN/BERGSTM PTCLDY    41  38  89 CALM      29.75R
WACO           PTCLDY    56  39  53 S12       29.72R
HILLSBORO      MOSUNNY   50  41  72 S8        29.71R
TEMPLE         CLEAR     50  41  71 S16       29.72S
KILLEEN-GRAY   PTCLDY    54  36  50 S12       29.70R
FORT HOOD      PTCLDY    49  36  62 S3        29.69R
GEORGETOWN     CLEAR     55  39  54 S12       29.74R
LAGO VISTA     FAIR      60  44  55 SW14G20   29.74R
SAN MARCOS     CLEAR     48  41  76 S9        29.78R
NEW BRAUNFELS  PTCLDY    46  41  82 SW7       29.75S
RANDOLPH AFB   PTCLDY    53  49  87 SW8       29.76S
SAN ANTONIO    PTCLDY    45  38  76 CALM      29.77S
STINSON        PTCLDY    47  40  76 CALM      29.76R
PLEASANTON     NOT AVBL
LA GRANGE      PTCLDY    53  52  97 S5        29.75S
GIDDINGS       MOSUNNY   54  52  94 S7        29.76F
$$

EAST TEXAS

CITY           SKY/WX    TMP DP  RH WIND       PRES   REMARKS
PARIS          CLOUDY    43  34  70 E12       29.73S WCI  37
CLARKSVILLE    NOT AVBL
TYLER          PTCLDY    52  43  71 S13       29.75S
LONGVIEW       MOCLDY    45  40  82 SE8       29.77S
PALESTINE      MOSUNNY   55  50  85 S8        29.77S
NACOGDOCHES    PTCLDY    39  37  93 CALM      29.79S
$$

TEXAS HILL COUNTRY AND EDWARDS PLATEAU

CITY           SKY/WX    TMP DP  RH WIND       PRES   REMARKS
LLANO          MOSUNNY   46  37  71 CALM      29.76R
HORSESHOE BAY  FAIR      60  39  45 S6        29.73R
KERRVILLE      CLOUDY    52  38  58 CALM      29.77R
FREDERICKSBRG  PTCLDY    54  36  49 SW8       29.76R
ROCKSPRINGS    CLOUDY    52  36  54 CALM      29.79R
HONDO          CLEAR     43  36  76 N10       29.76S WCI  37
UVALDE         MOSUNNY   46  36  69 NE9       29.75S
DEL RIO        CLOUDY    53  35  50 E9        29.71R
$$

SOUTHEAST TEXAS

CITY           SKY/WX    TMP DP  RH WIND       PRES   REMARKS
COLLEGE STN    CLEAR     50  49  96 SE6       29.77S
CALDWELL       NOT AVBL
CROCKETT       MOSUNNY   48  45  87 S5        29.82R
BRENHAM        CLEAR     59  57  92 S9        29.78S
HUNTSVILLE     CLEAR     56  52  86 S10       29.78S
CONROE         CLEAR     41  40  96 CALM      29.81R
HOUSTON BUSH   PTCLDY    57  53  86 S7        29.81R
HOUSTON HOBBY  PTCLDY    55  54  96 S6        29.81R
PERLAND        CLEAR     59  55  87 S5        29.83R
WHARTON        SUNNY     58  56  93 S8        29.80F
$$

THE UPPER TEXAS COAST

CITY           SKY/WX    TMP DP  RH WIND       PRES   REMARKS
ORANGE         SUNNY     53  52  97 SE3       29.87R
PORT ARTHUR    CLEAR     53  51  93 SE6       29.84R
GALVESTON      CLEAR     65  62  90 S9        29.83S
ANGLETON       CLEAR     60  58  92 S8        29.82R
BAY CITY       SUNNY     57  57 100 S5        29.81S
$$

TEXAS COASTAL BEND, RIO GRANDE PLAINS DEEP SOUTH TEXAS

CITY           SKY/WX    TMP DP  RH WIND       PRES   REMARKS
VICTORIA       PTCLDY    54  53  97 S6        29.78F
BEEVILLE       FAIR      57  57 100 S7        29.77R
ROCKPORT       CLEAR     66  61  84 S10       29.77F
PORT ARANSAS   SUNNY     65  61  86 S15G21    29.78S
PORT LAVACA    SUNNY     57  57 100 CALM      29.79F
CORPUS CHRISTI CLEAR     63  60  90 S15       29.76F
KINGSVILLE NAS PTCLDY    60  59  96 S12       29.76S
COTULLA        PTCLDY    57  45  64 S9        29.70F
LAREDO         CLEAR     59  47  64 SE16      29.71F
BROWNSVILLE    CLEAR     65  62  90 S13       29.80F
PORT ISABEL    CLEAR     64  61  90 S10       29.79F
HEBBRONVILLE   SUNNY     50  48  92 S6        29.75S
MCALLEN        CLEAR     63  54  72 SE14      29.78S
WESLACO        CLEAR     64  58  82 S17G28    29.77S
FALFURRIAS     SUNNY     56  55  93 S7        29.76R
EDINBURG       SUNNY     65  58  76 S12G18    29.78R
$$



USA.gov is the U.S. government's official web portal to all federal, state and local government web resources and services.